Weather History for KANJ - November, 2014

Change the Weather History Date:

Saturday, November 1, 2014

  Actual Average Record
Temperature  
Mean Temperature 30 °F 40 °F  
Max Temperature 36 °F 46 °F 66 °F (1999)
Min Temperature 23 °F 33 °F 19 °F (1911)
Degree Days  
Heating Degree Days 35 25  
Month to date heating degree days 35 25  
Since 1 July heating degree days 1073 1030  
Cooling Degree Days 0 0  
Month to date cooling degree days 0 0  
Year to date cooling degree days 113 196  
Moisture  
Dew Point 18 °F    
Average Humidity 62    
Maximum Humidity 81    
Minimum Humidity 43    
Precipitation  
Precipitation 0.00 in 0.12 in 1.65 in (1984)
Month to date precipitation 0.00 0.12  
Year to date precipitation 30.51 26.91  
Snow  
Snow 0.00 in 0.20 in 4.60 in (1996)
Month to date snowfall 0.0 0.2  
Since 1 July snowfall T 1.8  
Snow Depth 0.00 in    
Sea Level Pressure  
Sea Level Pressure 30.42 in    
Wind  
Wind Speed 4 mph (NNW)    
Max Wind Speed 9 mph    
Max Gust Speed -    
Visibility 10 miles    
Events      
T = Trace of Precipitation, MM = Missing Value Source: NWS Daily Summary

Daily Weather History Graph

Daily Weather History Graph

Search for Another Location

Airport or City:

Trip Planner

Search our weather history database for the weather conditions in past years. The results will help you decide how hot, cold, wet, or windy it might be!

Date:

Astronomy

Nov. 01, 2014 Rise Set
Actual Time 8:18 AM EDT 6:22 PM EDT
Civil Twilight 7:47 AM EDT 6:53 PM EDT
Nautical Twilight 7:11 AM EDT 7:29 PM EDT
Astronomical Twilight 6:36 AM EDT 8:04 PM EDT
Moon 3:34 PM EDT (11/1) 1:52 AM EDT (11/1)
Length of Visible Light 11h 06m
Length of Day
10h 03m
Waxing Gibbous, 67% of the Moon is Illuminated
Nov 1
Waxing Gibbous
Nov 6
Full
Nov 14
Last Quarter
Nov 22
New
Nov 29
First Quarter

Hourly Weather History & Observations

Time (EDT) Temp. Windchill Dew Point Humidity Pressure Visibility Wind Dir Wind Speed Gust Speed Precip Events Conditions
12:55 AM 27.0 °F 19.5 °F 16.0 °F 63% 30.43 in 10.0 mi North 6.9 mph - N/A   Clear
1:55 AM 25.0 °F 17.1 °F 17.1 °F 72% 30.42 in 10.0 mi North 6.9 mph - N/A   Clear
2:55 AM 25.0 °F 19.3 °F 17.1 °F 72% 30.43 in 10.0 mi North 4.6 mph - N/A   Clear
3:55 AM 24.1 °F 18.2 °F 17.1 °F 75% 30.43 in 10.0 mi NNE 4.6 mph - N/A   Clear
4:55 AM 23.0 °F - 16.0 °F 74% 30.44 in 10.0 mi Calm Calm - N/A   Clear
5:55 AM 23.0 °F - 16.0 °F 74% 30.45 in 10.0 mi Calm Calm - N/A   Clear
6:55 AM 24.1 °F 18.2 °F 16.0 °F 71% 30.47 in 10.0 mi North 4.6 mph - N/A   Clear
7:55 AM 23.0 °F 17.0 °F 17.1 °F 78% 30.46 in 10.0 mi North 4.6 mph - N/A   Clear
8:55 AM 25.0 °F 19.3 °F 17.1 °F 72% 30.47 in 10.0 mi NNW 4.6 mph - N/A   Clear
9:55 AM 27.0 °F 21.6 °F 17.1 °F 66% 30.48 in 10.0 mi NE 4.6 mph - N/A   Clear
10:55 AM 28.9 °F 23.9 °F 16.0 °F 58% 30.48 in 10.0 mi ENE 4.6 mph - N/A   Clear
11:55 AM 30.9 °F 25.2 °F 14.0 °F 50% 30.47 in 10.0 mi NE 5.8 mph - N/A   Clear
12:55 PM 33.1 °F 28.7 °F 14.0 °F 46% 30.45 in 10.0 mi Variable 4.6 mph - N/A   Clear
1:55 PM 34.0 °F 28.8 °F 15.1 °F 46% 30.43 in 10.0 mi West 5.8 mph - N/A   Clear
2:55 PM 35.1 °F 28.6 °F 17.1 °F 48% 30.41 in 10.0 mi West 8.1 mph - N/A   Clear
3:55 PM 35.1 °F 27.9 °F 19.0 °F 52% 30.40 in 10.0 mi NW 9.2 mph - N/A   Clear
4:55 PM 34.0 °F 27.2 °F 19.9 °F 56% 30.40 in 10.0 mi NW 8.1 mph - N/A   Clear
5:55 PM 33.1 °F 26.1 °F 21.0 °F 61% 30.39 in 10.0 mi WNW 8.1 mph - N/A   Clear
6:55 PM 30.9 °F 26.2 °F 21.9 °F 69% 30.39 in 10.0 mi NNW 4.6 mph - N/A   Clear
7:55 PM 30.0 °F 26.5 °F 21.9 °F 72% 30.40 in 10.0 mi NW 3.5 mph - N/A   Clear
8:55 PM 28.9 °F - 21.9 °F 75% 30.37 in 10.0 mi Calm Calm - N/A   Clear
9:55 PM 27.0 °F - 21.0 °F 78% 30.38 in 10.0 mi Calm Calm - N/A   Clear
10:55 PM 27.0 °F - 21.0 °F 78% 30.38 in 10.0 mi Calm Calm - N/A   Clear
11:55 PM 25.0 °F - 19.9 °F 81% 30.37 in 10.0 mi Calm Calm - N/A   Clear